Home   Weather   Dannenberg   Past weeks

Flag for Germany Past Weather in Dannenberg, Lower Saxony, Germany — Yesterday and Last 2 Weeks

Now
39 °F

Light rain. Mostly cloudy.


Feels Like: 35 °F
Forecast: 31 / 50 °F
Wind: 6 mph from South

Location: Mecklenburg-Vorpommern - Parchim

Current Time: Apr 25, 2017 at 11:04:05 am

Latest Report: Apr 25, 2017 at 10:20 am


Visibility: 4 mi

Pressure: 29.59 "Hg

Humidity: 93%

Dew Point: 37 °F

Location of DannenbergLocation

Past Weather in Dannenberg — Graph

°F

Dannenberg Temperature Yesterday

Maximum temperature yesterday: 54 °F (at 1:20 pm)
Minimum temperature yesterday: 37 °F (at 6:20 am)
Average temperature yesterday: 47 °F

High & Low Weather Summary for the Past Weeks

 TemperatureHumidityPressure
High57 °F (Apr 10, 9:20 am)100% (Apr 15, 10:20 am)30.60 "Hg (Apr 15, 10:20 am)
Low21 °F (Apr 20, 6:20 am)37% (Apr 20, 3:50 pm)29.59 "Hg (Apr 25, 6:20 am)
Average46 °F71%30.05 "Hg
* Reported Apr 10 9:20 am — Apr 25 9:20 am, Dannenberg, Weather by CustomWeather, © 2017

Note: Actual official high and low records may vary slightly from our data, if they occured in-between our weather recording intervals... More about our weather records

Advertising

Dannenberg Weather History for the Previous 24 Hours

Scroll right to see more
 ConditionsComfort  
Time TempWeatherWind HumidityBarometerVisibility
9:20 am
Tue, Apr 25
37 °FLow clouds.5 mph93%29.59 "HgN/A
8:50 am37 °FPartly sunny.6 mph93%29.59 "HgN/A
8:20 am36 °FPartly sunny.5 mph100%29.59 "HgN/A
7:50 am36 °FDrizzle. Partly sunny.3 mph100%29.59 "HgN/A
7:20 am36 °FPartly sunny.1 mph100%29.59 "HgN/A
6:50 am36 °FMore clouds than sun.2 mph93%29.59 "HgN/A
6:20 am36 °FLight rain. Broken clouds.2 mph93%29.59 "HgN/A
5:50 pm
Mon, Apr 24
54 °FMostly cloudy.17 mph58%29.74 "HgN/A
5:20 pm52 °FOvercast.17 mph62%29.74 "HgN/A
4:50 pm54 °FOvercast.23 mph54%29.77 "HgN/A
4:20 pm54 °FSunny.21 mph58%29.77 "Hg10 mi
3:50 pm54 °FSunny.18 mph58%29.77 "Hg10 mi
3:20 pm52 °FBroken clouds.20 mph58%29.80 "HgN/A
2:59 pm52 °FPartly sunny.17 mph58%29.80 "HgN/A
2:20 pm54 °FPartly sunny.20 mph54%29.80 "HgN/A
1:50 pm54 °FPartly sunny.20 mph54%29.80 "HgN/A
1:20 pm54 °FPartly sunny.17 mph54%29.83 "HgN/A
12:50 pm50 °FBroken clouds.16 mph58%29.83 "HgN/A
12:20 pm48 °FSunny.22 mph58%29.86 "Hg10 mi
11:50 am48 °FSunny.20 mph58%29.86 "Hg10 mi
11:20 am46 °FSunny.16 mph62%29.89 "Hg10 mi
Weather by CustomWeather, © 2017

See weather overviewHow to use our weather pages